Tracking 19562 objects as of 24-Mar-2019
HD Live streaming from Space Station
objects crossing your sky now

FLOCK 3P 69

Track FLOCK 3P 69 now!
10-day predictions
FLOCK 3P 69 is classified as:


NORAD ID: 42020
Int'l Code: 2017-008CA
Perigee: 490.7 km
Apogee: 504.2 km
Inclination: 97.4 °
Period: 94.4 minutes
Semi major axis: 6868 km
RCS: Unknown
Launch date: February 15, 2017
Source: United States (US)
Launch site: SRIHARIKOTA (SRI)
aabbcc
Your satellite tracking list
Your tracking list is empty




NASA's NSSDC Master Catalog

Two Line Element Set (TLE):
1 42020U 17008CA  19083.21674189  .00001143  00000-0  48439-4 0  9994
2 42020  97.4180 151.3671 0009794  90.9315 269.3045 15.25162140115507
Source of the keplerian elements: AFSPC